Tracking 19562 objects as of 23-Mar-2019
HD Live streaming from Space Station
objects crossing your sky now

COSMOS 2092

Track COSMOS 2092 now!
10-day predictions
COSMOS 2092 is classified as:


NORAD ID: 20737
Int'l Code: 1990-070C
Perigee: 1,413.4 km
Apogee: 1,419.8 km
Inclination: 82.6 °
Period: 114.0 minutes
Semi major axis: 7787 km
RCS: 1.1992 m2 (large)
Launch date: August 8, 1990
Source: Commonwealth of Independent States (former USSR) (CIS)
Launch site: PLESETSK MISSILE AND SPACE COMPLEX (PKMTR)
aabbcc
Your satellite tracking list
Your tracking list is empty




NASA's NSSDC Master Catalog

Two Line Element Set (TLE):
1 20737U 90070C   19081.82163302  .00000021  00000-0  59895-4 0  9992
2 20737  82.5719 197.7684 0004163  31.3111  86.8106 12.63274505319804
Source of the keplerian elements: AFSPC